Time,TemperatureF,DewpointF,PressureIn,WindDirection,WindDirectionDegrees,WindSpeedMPH,WindSpeedGustMPH,Humidity,HourlyPrecipIn,Conditions,Clouds,dailyrainin,SoftwareType,DateUTC
2013-05-06 00:02:00,64.8,55.2,30.15,ENE,68,3.1,3.6,71,0.00,,---,0.00,VWS V14.01,2013-05-05 22:02:00,
2013-05-06 00:07:00,64.9,55.7,30.15,NNE,27,2.7,3.6,72,0.00,,---,0.00,VWS V14.01,2013-05-05 22:07:00,
2013-05-06 00:13:00,64.9,55.3,30.15,NW,318,4.5,4.5,71,0.00,,---,0.00,VWS V14.01,2013-05-05 22:13:00,
2013-05-06 00:18:00,65.1,55.5,30.15,NW,323,2.7,4.5,71,0.00,,---,0.00,VWS V14.01,2013-05-05 22:18:00,
2013-05-06 00:23:00,65.3,55.7,30.12,NNW,336,4.5,4.9,71,0.00,,---,0.00,VWS V14.01,2013-05-05 22:23:00,
2013-05-06 00:28:00,64.9,55.3,30.12,North,351,4.9,6.9,71,0.00,,---,0.00,VWS V14.01,2013-05-05 22:28:00,
2013-05-06 00:33:00,64.8,55.5,30.12,NW,308,6.7,6.7,72,0.00,,---,0.00,VWS V14.01,2013-05-05 22:33:00,
2013-05-06 00:38:00,64.6,55.4,30.12,NE,50,2.7,4.0,72,0.00,,---,0.00,VWS V14.01,2013-05-05 22:38:00,
2013-05-06 00:43:00,64.2,55.0,30.12,NNW,338,5.4,5.4,72,0.00,,---,0.00,VWS V14.01,2013-05-05 22:43:00,
2013-05-06 00:48:00,63.9,54.7,30.12,NNW,343,4.0,4.9,72,0.00,,---,0.00,VWS V14.01,2013-05-05 22:48:00,
2013-05-06 00:53:00,63.9,55.0,30.12,NNW,340,0.0,4.5,73,0.00,,---,0.00,VWS V14.01,2013-05-05 22:53:00,
2013-05-06 00:58:00,63.9,55.4,30.12,NNW,340,0.0,4.0,74,0.00,,---,0.00,VWS V14.01,2013-05-05 22:58:00,
2013-05-06 01:03:00,63.9,55.4,30.12,NNW,331,0.0,3.6,74,0.00,,---,0.00,VWS V14.01,2013-05-05 23:03:00,
2013-05-06 01:08:00,63.9,55.4,30.12,NW,324,0.0,2.7,74,0.00,,---,0.00,VWS V14.01,2013-05-05 23:08:00,
2013-05-06 01:13:00,63.7,55.6,30.12,NW,316,4.9,4.9,75,0.00,,---,0.00,VWS V14.01,2013-05-05 23:13:00,
2013-05-06 01:18:00,63.5,55.8,30.12,NW,321,3.6,4.0,76,0.00,,---,0.00,VWS V14.01,2013-05-05 23:18:00,
2013-05-06 01:23:00,63.3,55.6,30.12,NNW,330,3.6,3.6,76,0.00,,---,0.00,VWS V14.01,2013-05-05 23:23:00,
2013-05-06 01:28:00,63.1,55.8,30.12,WNW,291,0.0,4.9,77,0.00,,---,0.00,VWS V14.01,2013-05-05 23:28:00,
2013-05-06 01:33:00,63.1,55.8,30.12,WNW,288,0.0,2.7,77,0.00,,---,0.00,VWS V14.01,2013-05-05 23:33:00,
2013-05-06 01:38:00,63.1,55.8,30.12,WNW,288,0.0,0.0,77,0.00,,---,0.00,VWS V14.01,2013-05-05 23:38:00,
2013-05-06 01:43:00,63.0,55.7,30.12,WNW,288,0.0,0.0,77,0.00,,---,0.00,VWS V14.01,2013-05-05 23:43:00,
2013-05-06 01:48:00,62.8,55.8,30.12,WNW,295,0.0,0.0,78,0.00,,---,0.00,VWS V14.01,2013-05-05 23:48:00,
2013-05-06 01:53:00,62.6,55.7,30.12,WNW,295,3.1,4.0,78,0.00,,---,0.00,VWS V14.01,2013-05-05 23:53:00,
2013-05-06 01:58:00,62.4,55.5,30.12,WNW,294,2.7,2.7,78,0.00,,---,0.00,VWS V14.01,2013-05-05 23:58:00,
2013-05-06 02:03:00,62.4,55.5,30.12,WNW,301,0.0,0.0,78,0.00,,---,0.00,VWS V14.01,2013-05-06 00:03:00,
2013-05-06 02:08:00,62.2,55.7,30.12,NNW,337,3.6,4.5,79,0.00,,---,0.00,VWS V14.01,2013-05-06 00:08:00,
2013-05-06 02:13:00,62.2,55.7,30.12,NNE,14,0.0,0.0,79,0.00,,---,0.00,VWS V14.01,2013-05-06 00:13:00,
2013-05-06 02:18:00,62.2,55.7,30.12,ENE,61,3.1,3.6,79,0.00,,---,0.00,VWS V14.01,2013-05-06 00:18:00,
2013-05-06 02:23:00,62.2,55.7,30.12,ENE,61,0.0,0.0,79,0.00,,---,0.00,VWS V14.01,2013-05-06 00:23:00,
2013-05-06 02:28:00,62.2,55.7,30.12,ENE,61,0.0,3.1,79,0.00,,---,0.00,VWS V14.01,2013-05-06 00:28:00,
2013-05-06 02:33:00,62.2,55.7,30.12,ENE,61,0.0,3.6,79,0.00,,---,0.00,VWS V14.01,2013-05-06 00:33:00,
2013-05-06 02:38:00,62.2,55.7,30.12,NNE,22,0.0,3.6,79,0.00,,---,0.00,VWS V14.01,2013-05-06 00:38:00,
2013-05-06 02:43:00,62.4,55.8,30.12,WNW,302,2.7,3.6,79,0.00,,---,0.00,VWS V14.01,2013-05-06 00:43:00,
2013-05-06 02:48:00,62.4,55.8,30.12,NNW,327,2.7,2.7,79,0.00,,---,0.00,VWS V14.01,2013-05-06 00:48:00,
2013-05-06 02:53:00,62.4,55.8,30.12,NW,323,0.0,0.0,79,0.00,,---,0.00,VWS V14.01,2013-05-06 00:53:00,
2013-05-06 02:58:00,62.4,55.8,30.12,NW,320,4.9,5.4,79,0.00,,---,0.00,VWS V14.01,2013-05-06 00:58:00,
2013-05-06 03:03:00,62.2,55.7,30.12,NNW,340,4.5,4.5,79,0.00,,---,0.00,VWS V14.01,2013-05-06 01:03:00,
2013-05-06 03:08:00,62.4,55.5,30.12,NNW,342,3.6,5.4,78,0.00,,---,0.00,VWS V14.01,2013-05-06 01:08:00,
2013-05-06 03:13:00,62.4,55.5,30.12,NNW,345,4.9,5.4,78,0.00,,---,0.00,VWS V14.01,2013-05-06 01:13:00,
2013-05-06 03:18:00,62.4,55.5,30.12,NNW,344,3.1,4.9,78,0.00,,---,0.00,VWS V14.01,2013-05-06 01:18:00,
2013-05-06 03:23:00,62.4,55.5,30.12,North,351,3.1,5.4,78,0.00,,---,0.00,VWS V14.01,2013-05-06 01:23:00,
2013-05-06 03:28:00,62.6,55.3,30.12,NNW,340,4.9,6.7,77,0.00,,---,0.00,VWS V14.01,2013-05-06 01:28:00,
2013-05-06 03:33:00,62.6,54.9,30.12,NNW,340,0.0,4.5,76,0.00,,---,0.00,VWS V14.01,2013-05-06 01:33:00,
2013-05-06 03:38:00,62.6,54.6,30.12,NNW,340,0.0,2.7,75,0.00,,---,0.00,VWS V14.01,2013-05-06 01:38:00,
2013-05-06 03:43:00,62.6,54.6,30.12,South,184,3.1,4.5,75,0.00,,---,0.00,VWS V14.01,2013-05-06 01:43:00,
2013-05-06 03:48:00,62.6,54.6,30.12,South,184,3.1,3.6,75,0.00,,---,0.00,VWS V14.01,2013-05-06 01:48:00,
2013-05-06 03:53:00,62.4,54.4,30.15,South,184,0.0,3.1,75,0.00,,---,0.00,VWS V14.01,2013-05-06 01:53:00,
2013-05-06 03:58:00,62.2,54.2,30.15,South,184,0.0,0.0,75,0.00,,---,0.00,VWS V14.01,2013-05-06 01:58:00,
2013-05-06 04:03:00,62.2,54.2,30.15,South,184,0.0,0.0,75,0.00,,---,0.00,VWS V14.01,2013-05-06 02:03:00,
2013-05-06 04:08:00,62.2,54.6,30.12,South,184,0.0,0.0,76,0.00,,---,0.00,VWS V14.01,2013-05-06 02:08:00,
2013-05-06 04:13:00,62.1,54.4,30.12,South,184,0.0,0.0,76,0.00,,---,0.00,VWS V14.01,2013-05-06 02:13:00,
2013-05-06 04:18:00,62.1,54.4,30.12,South,184,0.0,0.0,76,0.00,,---,0.00,VWS V14.01,2013-05-06 02:18:00,
2013-05-06 04:23:00,62.1,54.0,30.12,South,184,0.0,0.0,75,0.00,,---,0.00,VWS V14.01,2013-05-06 02:23:00,
2013-05-06 04:28:00,62.1,54.0,30.12,South,184,0.0,0.0,75,0.00,,---,0.00,VWS V14.01,2013-05-06 02:28:00,
2013-05-06 04:33:00,62.1,54.0,30.12,South,184,0.0,2.7,75,0.00,,---,0.00,VWS V14.01,2013-05-06 02:33:00,
2013-05-06 04:38:00,62.1,53.7,30.12,SW,223,3.6,4.9,74,0.00,,---,0.00,VWS V14.01,2013-05-06 02:38:00,
2013-05-06 04:43:00,61.9,52.8,30.12,NNW,342,5.4,6.3,72,0.00,,---,0.00,VWS V14.01,2013-05-06 02:43:00,
2013-05-06 04:48:00,61.9,52.4,30.12,North,351,4.0,5.4,71,0.00,,---,0.00,VWS V14.01,2013-05-06 02:48:00,
2013-05-06 04:53:00,62.1,52.2,30.12,NNW,344,3.1,4.5,70,0.00,,---,0.00,VWS V14.01,2013-05-06 02:53:00,
2013-05-06 04:58:00,62.1,52.2,30.12,NNW,341,0.0,2.7,70,0.00,,---,0.00,VWS V14.01,2013-05-06 02:58:00,
2013-05-06 05:03:00,61.9,52.0,30.12,NNW,336,3.1,5.8,70,0.00,,---,0.00,VWS V14.01,2013-05-06 03:03:00,
2013-05-06 05:08:00,61.7,52.2,30.09,WNW,292,6.7,6.7,71,0.00,,---,0.00,VWS V14.01,2013-05-06 03:08:00,
2013-05-06 05:13:00,61.3,52.2,30.09,WNW,287,6.7,6.9,72,0.00,,---,0.00,VWS V14.01,2013-05-06 03:13:00,
2013-05-06 05:18:00,61.2,52.5,30.09,NW,319,0.0,6.7,73,0.00,,---,0.00,VWS V14.01,2013-05-06 03:18:00,
2013-05-06 05:23:00,61.0,52.3,30.09,North,351,3.1,4.5,73,0.00,,---,0.00,VWS V14.01,2013-05-06 03:23:00,
2013-05-06 05:28:00,60.6,52.3,30.09,NNW,332,4.0,4.0,74,0.00,,---,0.00,VWS V14.01,2013-05-06 03:28:00,
2013-05-06 05:33:00,60.4,52.1,30.09,NNW,345,0.0,2.7,74,0.00,,---,0.00,VWS V14.01,2013-05-06 03:33:00,
2013-05-06 05:38:00,60.3,52.3,30.09,NNW,345,5.4,6.9,75,0.00,,---,0.00,VWS V14.01,2013-05-06 03:38:00,
2013-05-06 05:43:00,60.3,52.3,30.09,NNW,342,4.9,6.7,75,0.00,,---,0.00,VWS V14.01,2013-05-06 03:43:00,
2013-05-06 05:48:00,60.1,52.5,30.09,NW,322,5.4,6.9,76,0.00,,---,0.00,VWS V14.01,2013-05-06 03:48:00,
2013-05-06 05:53:00,60.1,52.5,30.09,NNW,336,0.0,5.8,76,0.00,,---,0.00,VWS V14.01,2013-05-06 03:53:00,
2013-05-06 05:58:00,60.1,52.9,30.09,SSE,152,4.5,5.8,77,0.00,,---,0.00,VWS V14.01,2013-05-06 03:58:00,
2013-05-06 06:01:00,60.1,52.9,30.09,South,171,2.7,5.8,77,0.00,,---,0.00,VWS V14.01,2013-05-06 04:01:00,
2013-05-06 06:02:00,60.1,52.9,30.09,South,171,2.7,5.4,77,0.00,,---,0.00,VWS V14.01,2013-05-06 04:02:00,
2013-05-06 06:07:00,60.3,53.0,30.09,South,171,0.0,2.7,77,0.00,,---,0.00,VWS V14.01,2013-05-06 04:07:00,
2013-05-06 06:12:00,60.3,52.7,30.12,South,171,0.0,0.0,76,0.00,,---,0.00,VWS V14.01,2013-05-06 04:12:00,
2013-05-06 06:17:00,60.1,52.1,30.12,South,171,0.0,2.7,75,0.00,,---,0.00,VWS V14.01,2013-05-06 04:17:00,
2013-05-06 06:22:00,60.1,52.1,30.12,NW,317,2.7,4.9,75,0.00,,---,0.00,VWS V14.01,2013-05-06 04:22:00,
2013-05-06 06:27:00,60.3,52.3,30.12,West,272,4.9,5.4,75,0.00,,---,0.00,VWS V14.01,2013-05-06 04:27:00,
2013-05-06 06:32:00,60.6,52.7,30.12,West,272,0.0,0.0,75,0.00,,---,0.00,VWS V14.01,2013-05-06 04:32:00,
2013-05-06 06:37:00,60.6,52.7,30.12,West,272,0.0,0.0,75,0.00,,---,0.00,VWS V14.01,2013-05-06 04:37:00,
2013-05-06 06:42:00,60.6,52.7,30.12,West,272,0.0,0.0,75,0.00,,---,0.00,VWS V14.01,2013-05-06 04:42:00,
2013-05-06 06:47:00,60.6,53.0,30.12,West,272,0.0,0.0,76,0.00,,---,0.00,VWS V14.01,2013-05-06 04:47:00,
2013-05-06 06:52:00,60.8,53.2,30.12,West,272,0.0,0.0,76,0.00,,---,0.00,VWS V14.01,2013-05-06 04:52:00,
2013-05-06 06:57:00,61.0,53.0,30.12,West,272,3.6,4.0,75,0.00,,---,0.00,VWS V14.01,2013-05-06 04:57:00,
2013-05-06 07:02:00,61.7,54.1,30.12,WNW,289,5.4,5.8,76,0.00,,---,0.00,VWS V14.01,2013-05-06 05:02:00,
2013-05-06 07:08:00,61.9,53.9,30.12,WNW,282,5.4,5.4,75,0.00,,---,0.00,VWS V14.01,2013-05-06 05:08:00,
2013-05-06 07:13:00,62.2,54.2,30.12,West,276,3.6,4.9,75,0.00,,---,0.00,VWS V14.01,2013-05-06 05:13:00,
2013-05-06 07:18:00,62.4,54.4,30.12,West,276,2.7,3.1,75,0.00,,---,0.00,VWS V14.01,2013-05-06 05:18:00,
2013-05-06 07:23:00,63.0,54.9,30.12,West,276,3.1,3.6,75,0.00,,---,0.00,VWS V14.01,2013-05-06 05:23:00,
2013-05-06 07:28:00,63.5,55.1,30.12,NW,321,0.0,3.1,74,0.00,,---,0.00,VWS V14.01,2013-05-06 05:28:00,
2013-05-06 07:33:00,63.1,53.2,30.12,NNW,329,2.7,5.4,70,0.00,,---,0.00,VWS V14.01,2013-05-06 05:33:00,
2013-05-06 07:38:00,63.1,52.0,30.12,North,351,3.6,4.9,67,0.00,,---,0.00,VWS V14.01,2013-05-06 05:38:00,
2013-05-06 07:43:00,63.3,51.8,30.12,WNW,302,0.0,4.9,66,0.00,,---,0.00,VWS V14.01,2013-05-06 05:43:00,
2013-05-06 07:48:00,63.7,51.7,30.12,NNW,336,0.0,3.6,65,0.00,,---,0.00,VWS V14.01,2013-05-06 05:48:00,
2013-05-06 07:53:00,63.9,51.5,30.12,NNW,336,4.5,6.3,64,0.00,,---,0.00,VWS V14.01,2013-05-06 05:53:00,
2013-05-06 07:58:00,64.0,49.4,30.12,North,1,2.7,6.3,59,0.00,,---,0.00,VWS V14.01,2013-05-06 05:58:00,
2013-05-06 08:03:00,64.0,49.0,30.12,NNW,340,5.4,6.9,58,0.00,,---,0.00,VWS V14.01,2013-05-06 06:03:00,
2013-05-06 08:08:00,64.2,50.1,30.12,North,351,4.0,5.4,60,0.00,,---,0.00,VWS V14.01,2013-05-06 06:08:00,
2013-05-06 08:13:00,64.4,49.8,30.12,NNW,341,3.6,5.8,59,0.00,,---,0.00,VWS V14.01,2013-05-06 06:13:00,
2013-05-06 08:18:00,64.2,49.2,30.12,NNW,342,0.0,3.1,58,0.00,,---,0.00,VWS V14.01,2013-05-06 06:18:00,
2013-05-06 08:23:00,64.4,49.8,30.12,WNW,299,3.1,3.1,59,0.00,,---,0.00,VWS V14.01,2013-05-06 06:23:00,
2013-05-06 08:28:00,64.2,49.2,30.12,NNW,337,4.9,6.3,58,0.00,,---,0.00,VWS V14.01,2013-05-06 06:28:00,
2013-05-06 08:33:00,64.2,49.6,30.12,NW,325,4.0,4.9,59,0.00,,---,0.00,VWS V14.01,2013-05-06 06:33:00,
2013-05-06 08:38:00,64.8,51.0,30.12,NNW,340,4.0,4.0,61,0.00,,---,0.00,VWS V14.01,2013-05-06 06:38:00,
2013-05-06 08:43:00,64.9,49.8,30.12,NNW,339,4.0,5.8,58,0.00,,---,0.00,VWS V14.01,2013-05-06 06:43:00,
2013-05-06 08:48:00,64.8,49.7,30.12,North,351,0.0,0.0,58,0.00,,---,0.00,VWS V14.01,2013-05-06 06:48:00,
2013-05-06 08:53:00,66.0,50.8,30.12,NNW,332,6.9,7.4,58,0.00,,---,0.00,VWS V14.01,2013-05-06 06:53:00,
2013-05-06 08:58:00,66.2,50.1,30.12,SE,128,3.1,6.9,56,0.00,,---,0.00,VWS V14.01,2013-05-06 06:58:00,
2013-05-06 09:03:00,66.4,49.2,30.12,NW,325,3.6,7.4,54,0.00,,---,0.00,VWS V14.01,2013-05-06 07:03:00,
2013-05-06 09:08:00,66.6,49.9,30.12,ESE,121,0.0,5.8,55,0.00,,---,0.00,VWS V14.01,2013-05-06 07:08:00,
2013-05-06 09:13:00,67.3,50.6,30.12,WNW,283,2.7,4.0,55,0.00,,---,0.00,VWS V14.01,2013-05-06 07:13:00,
2013-05-06 09:18:00,67.8,49.6,30.12,SE,126,3.6,8.3,52,0.00,,---,0.00,VWS V14.01,2013-05-06 07:18:00,
2013-05-06 09:23:00,68.4,50.1,30.12,NNW,330,6.3,7.4,52,0.00,,---,0.00,VWS V14.01,2013-05-06 07:23:00,
2013-05-06 09:28:00,68.7,50.4,30.12,SSE,152,3.6,5.4,52,0.00,,---,0.00,VWS V14.01,2013-05-06 07:28:00,
2013-05-06 09:33:00,70.0,49.4,30.12,SSE,155,4.0,5.4,48,0.00,,---,0.00,VWS V14.01,2013-05-06 07:33:00,
2013-05-06 09:38:00,70.0,47.1,30.12,SSE,166,7.8,7.8,44,0.00,,---,0.00,VWS V14.01,2013-05-06 07:38:00,
2013-05-06 09:43:00,69.6,46.2,30.12,SSE,155,5.8,11.2,43,0.00,,---,0.00,VWS V14.01,2013-05-06 07:43:00,
2013-05-06 09:48:00,69.8,46.9,30.12,SE,129,7.8,10.1,44,0.00,,---,0.00,VWS V14.01,2013-05-06 07:48:00,
2013-05-06 09:53:00,69.8,46.3,30.12,NNW,335,8.3,10.1,43,0.00,,---,0.00,VWS V14.01,2013-05-06 07:53:00,
2013-05-06 09:58:00,69.4,46.0,30.12,SE,142,6.3,11.6,43,0.00,,---,0.00,VWS V14.01,2013-05-06 07:58:00,
2013-05-06 10:03:00,68.9,45.5,30.12,East,98,4.0,9.6,43,0.00,,---,0.00,VWS V14.01,2013-05-06 08:03:00,
2013-05-06 10:08:00,68.9,46.7,30.12,North,351,0.0,7.4,45,0.00,,---,0.00,VWS V14.01,2013-05-06 08:08:00,
2013-05-06 10:13:00,69.1,46.9,30.12,SSE,168,6.3,7.4,45,0.00,,---,0.00,VWS V14.01,2013-05-06 08:13:00,
2013-05-06 10:18:00,69.6,46.8,30.12,SW,234,6.7,7.4,44,0.00,,---,0.00,VWS V14.01,2013-05-06 08:18:00,
2013-05-06 10:23:00,69.6,46.8,30.12,SSE,159,6.3,12.5,44,0.00,,---,0.00,VWS V14.01,2013-05-06 08:23:00,
2013-05-06 10:28:00,69.4,46.6,30.12,SSE,153,11.0,12.5,44,0.00,,---,0.00,VWS V14.01,2013-05-06 08:28:00,
2013-05-06 10:33:00,69.3,47.0,30.12,SSE,162,11.2,13.4,45,0.00,,---,0.00,VWS V14.01,2013-05-06 08:33:00,
2013-05-06 10:38:00,69.3,47.0,30.12,SSE,151,9.2,13.9,45,0.00,,---,0.00,VWS V14.01,2013-05-06 08:38:00,
2013-05-06 10:43:00,69.1,46.9,30.12,SSE,154,9.6,15.4,45,0.00,,---,0.00,VWS V14.01,2013-05-06 08:43:00,
2013-05-06 10:48:00,69.1,47.5,30.12,ESE,102,10.1,15.2,46,0.00,,---,0.00,VWS V14.01,2013-05-06 08:48:00,
2013-05-06 10:53:00,69.1,46.9,30.12,SSE,161,11.2,13.4,45,0.00,,---,0.00,VWS V14.01,2013-05-06 08:53:00,
2013-05-06 10:58:00,68.9,47.3,30.12,SE,146,12.5,16.3,46,0.00,,---,0.00,VWS V14.01,2013-05-06 08:58:00,
2013-05-06 11:03:00,68.5,47.5,30.12,SE,143,9.6,14.8,47,0.00,,---,0.00,VWS V14.01,2013-05-06 09:03:00,
2013-05-06 11:08:00,68.2,48.3,30.12,SSE,154,10.1,12.5,49,0.00,,---,0.00,VWS V14.01,2013-05-06 09:08:00,
2013-05-06 11:13:00,67.8,49.0,30.12,SE,143,6.3,12.1,51,0.00,,---,0.00,VWS V14.01,2013-05-06 09:13:00,
2013-05-06 11:18:00,67.8,49.0,30.12,SSE,152,6.7,9.6,51,0.00,,---,0.00,VWS V14.01,2013-05-06 09:18:00,
2013-05-06 11:23:00,67.8,50.1,30.12,SSE,153,4.5,9.2,53,0.00,,---,0.00,VWS V14.01,2013-05-06 09:23:00,
2013-05-06 11:28:00,68.2,49.9,30.12,SSE,153,0.0,9.2,52,0.00,,---,0.00,VWS V14.01,2013-05-06 09:28:00,
2013-05-06 11:33:00,68.2,49.9,30.12,SE,132,9.6,9.6,52,0.00,,---,0.00,VWS V14.01,2013-05-06 09:33:00,
2013-05-06 11:38:00,68.7,50.4,30.12,ESE,122,3.6,7.4,52,0.00,,---,0.00,VWS V14.01,2013-05-06 09:38:00,
2013-05-06 11:43:00,69.4,50.5,30.12,SE,138,4.9,4.9,51,0.00,,---,0.00,VWS V14.01,2013-05-06 09:43:00,
2013-05-06 11:48:00,70.3,50.3,30.12,SSE,165,9.6,11.6,49,0.00,,---,0.00,VWS V14.01,2013-05-06 09:48:00,
2013-05-06 11:53:00,71.1,50.4,30.12,SSE,148,10.5,11.2,48,0.00,,---,0.00,VWS V14.01,2013-05-06 09:53:00,
2013-05-06 11:58:00,70.9,49.7,30.12,SSE,156,8.3,12.5,47,0.00,,---,0.00,VWS V14.01,2013-05-06 09:58:00,
2013-05-06 12:03:00,70.7,50.1,30.12,SE,135,6.9,7.4,48,0.00,,---,0.00,VWS V14.01,2013-05-06 10:03:00,
2013-05-06 12:08:00,71.1,51.0,30.12,ESE,105,4.5,4.5,49,0.00,,---,0.00,VWS V14.01,2013-05-06 10:08:00,
2013-05-06 12:13:00,71.6,50.9,30.12,ESE,123,7.4,9.6,48,0.00,,---,0.00,VWS V14.01,2013-05-06 10:13:00,
2013-05-06 12:18:00,71.8,51.1,30.12,SSE,167,6.9,8.7,48,0.00,,---,0.00,VWS V14.01,2013-05-06 10:18:00,
2013-05-06 12:23:00,72.1,50.8,30.12,ENE,62,2.7,7.4,47,0.00,,---,0.00,VWS V14.01,2013-05-06 10:23:00,
2013-05-06 12:28:00,72.3,51.0,30.12,SE,125,3.1,4.5,47,0.00,,---,0.00,VWS V14.01,2013-05-06 10:28:00,
2013-05-06 12:33:00,72.3,51.0,30.12,NNW,332,6.7,6.7,47,0.00,,---,0.00,VWS V14.01,2013-05-06 10:33:00,
2013-05-06 12:38:00,72.1,50.8,30.12,ESE,117,4.9,5.8,47,0.00,,---,0.00,VWS V14.01,2013-05-06 10:38:00,
2013-05-06 12:43:00,72.3,51.0,30.12,SSE,160,6.7,7.8,47,0.00,,---,0.00,VWS V14.01,2013-05-06 10:43:00,
2013-05-06 12:48:00,72.9,51.5,30.12,NNW,332,6.7,7.8,47,0.00,,---,0.00,VWS V14.01,2013-05-06 10:48:00,
2013-05-06 12:53:00,72.5,51.2,30.12,SE,126,4.0,6.3,47,0.00,,---,0.00,VWS V14.01,2013-05-06 10:53:00,
2013-05-06 12:58:00,72.7,50.7,30.12,SE,142,6.3,8.3,46,0.00,,---,0.00,VWS V14.01,2013-05-06 10:58:00,
2013-05-06 13:03:00,73.0,51.1,30.12,SSE,153,2.7,3.1,46,0.00,,---,0.00,VWS V14.01,2013-05-06 11:03:00,
2013-05-06 13:08:00,73.4,51.4,30.09,ENE,63,4.5,4.5,46,0.00,,---,0.00,VWS V14.01,2013-05-06 11:08:00,
2013-05-06 13:13:00,74.1,52.0,30.09,South,169,2.7,6.7,46,0.00,,---,0.00,VWS V14.01,2013-05-06 11:13:00,
2013-05-06 13:18:00,74.7,51.3,30.09,SSE,158,12.5,12.5,44,0.00,,---,0.00,VWS V14.01,2013-05-06 11:18:00,
2013-05-06 13:23:00,74.7,51.3,30.09,SSE,162,11.0,11.0,44,0.00,,---,0.00,VWS V14.01,2013-05-06 11:23:00,
2013-05-06 13:28:00,74.8,50.9,30.09,SSE,162,6.7,8.3,43,0.00,,---,0.00,VWS V14.01,2013-05-06 11:28:00,
2013-05-06 13:33:00,75.2,51.2,30.09,SSE,161,5.8,7.8,43,0.00,,---,0.00,VWS V14.01,2013-05-06 11:33:00,
2013-05-06 13:38:00,75.6,51.5,30.09,ESE,123,4.5,12.1,43,0.00,,---,0.00,VWS V14.01,2013-05-06 11:38:00,
2013-05-06 13:43:00,75.6,51.5,30.09,ESE,112,8.7,10.1,43,0.00,,---,0.00,VWS V14.01,2013-05-06 11:43:00,
2013-05-06 13:48:00,75.4,51.3,30.09,SSE,157,13.0,14.8,43,0.00,,---,0.00,VWS V14.01,2013-05-06 11:48:00,
2013-05-06 13:53:00,74.8,51.5,30.09,ENE,65,3.6,6.3,44,0.00,,---,0.00,VWS V14.01,2013-05-06 11:53:00,
2013-05-06 13:58:00,74.5,51.8,30.09,SSE,167,11.6,11.6,45,0.00,,---,0.00,VWS V14.01,2013-05-06 11:58:00,
2013-05-06 14:03:00,74.3,52.2,30.09,South,173,12.1,13.9,46,0.00,,---,0.00,VWS V14.01,2013-05-06 12:03:00,
2013-05-06 14:08:00,73.9,51.3,30.09,SSE,161,12.5,13.0,45,0.00,,---,0.00,VWS V14.01,2013-05-06 12:08:00,
2013-05-06 14:13:00,73.6,51.5,30.09,SE,135,13.0,13.0,46,0.00,,---,0.00,VWS V14.01,2013-05-06 12:13:00,
2013-05-06 14:18:00,73.0,51.6,30.09,SSE,150,9.6,11.0,47,0.00,,---,0.00,VWS V14.01,2013-05-06 12:18:00,
2013-05-06 14:23:00,72.7,52.4,30.09,ESE,121,7.8,9.6,49,0.00,,---,0.00,VWS V14.01,2013-05-06 12:23:00,
2013-05-06 14:28:00,72.5,52.8,30.09,ESE,105,5.8,12.5,50,0.00,,---,0.00,VWS V14.01,2013-05-06 12:28:00,
2013-05-06 14:33:00,72.1,53.0,30.09,SE,142,12.1,12.5,51,0.00,,---,0.00,VWS V14.01,2013-05-06 12:33:00,
2013-05-06 14:38:00,71.8,52.7,30.06,SE,140,6.3,10.1,51,0.00,,---,0.00,VWS V14.01,2013-05-06 12:38:00,
2013-05-06 14:43:00,71.8,53.2,30.06,ESE,117,6.3,9.2,52,0.00,,---,0.00,VWS V14.01,2013-05-06 12:43:00,
2013-05-06 14:48:00,71.6,54.1,30.06,SSE,165,11.2,11.2,54,0.00,,---,0.00,VWS V14.01,2013-05-06 12:48:00,
2013-05-06 14:53:00,71.6,54.1,30.09,South,175,6.9,8.7,54,0.00,,---,0.00,VWS V14.01,2013-05-06 12:53:00,
2013-05-06 14:58:00,71.4,54.4,30.09,SSE,166,7.8,9.6,55,0.00,,---,0.00,VWS V14.01,2013-05-06 12:58:00,
2013-05-06 15:03:00,71.4,54.9,30.09,South,172,6.7,8.3,56,0.00,,---,0.00,VWS V14.01,2013-05-06 13:03:00,
2013-05-06 15:08:00,70.9,57.2,30.12,South,178,10.1,13.4,62,0.00,,---,0.00,VWS V14.01,2013-05-06 13:08:00,
2013-05-06 15:13:00,68.9,56.7,30.12,SSE,166,0.0,4.5,65,0.00,,---,0.00,VWS V14.01,2013-05-06 13:13:00,
2013-05-06 15:18:00,66.9,57.2,30.12,SSE,167,6.7,8.7,71,0.00,,---,0.00,VWS V14.01,2013-05-06 13:18:00,
2013-05-06 15:23:00,65.5,56.2,30.09,SSE,147,4.9,5.8,72,0.00,,---,0.00,VWS V14.01,2013-05-06 13:23:00,
2013-05-06 15:28:00,64.4,57.0,30.09,SE,130,4.5,6.7,77,0.00,,---,0.00,VWS V14.01,2013-05-06 13:28:00,
2013-05-06 15:33:00,64.0,57.4,30.09,East,86,0.0,4.0,79,0.00,,---,0.00,VWS V14.01,2013-05-06 13:33:00,
2013-05-06 15:38:00,64.0,57.8,30.09,SSE,162,5.4,6.7,80,0.00,,---,0.00,VWS V14.01,2013-05-06 13:38:00,
2013-05-06 15:43:00,64.0,58.4,30.09,SSE,153,6.7,8.7,82,0.00,,---,0.00,VWS V14.01,2013-05-06 13:43:00,
2013-05-06 15:48:00,64.0,58.4,30.09,SSE,163,6.3,6.3,82,0.00,,---,0.00,VWS V14.01,2013-05-06 13:48:00,
2013-05-06 15:53:00,64.4,58.8,30.09,South,173,3.6,4.9,82,0.00,,---,0.00,VWS V14.01,2013-05-06 13:53:00,
2013-05-06 15:58:00,64.6,59.0,30.09,SE,143,4.5,5.4,82,0.00,,---,0.00,VWS V14.01,2013-05-06 13:58:00,
2013-05-06 16:03:00,64.8,59.1,30.09,SE,143,0.0,3.6,82,0.00,,---,0.00,VWS V14.01,2013-05-06 14:03:00,
2013-05-06 16:08:00,64.9,59.3,30.09,SE,130,4.0,5.4,82,0.00,,---,0.00,VWS V14.01,2013-05-06 14:08:00,
2013-05-06 16:13:00,65.1,59.5,30.09,SSE,164,3.6,6.9,82,0.00,,---,0.00,VWS V14.01,2013-05-06 14:13:00,
2013-05-06 16:18:00,65.1,59.5,30.09,West,272,2.7,4.0,82,0.00,,---,0.00,VWS V14.01,2013-05-06 14:18:00,
2013-05-06 16:23:00,65.5,59.8,30.06,SSE,167,3.1,6.7,82,0.00,,---,0.00,VWS V14.01,2013-05-06 14:23:00,
2013-05-06 16:28:00,65.7,60.0,30.06,NW,310,3.6,5.4,82,0.00,,---,0.00,VWS V14.01,2013-05-06 14:28:00,
2013-05-06 16:33:00,66.0,60.0,30.06,SE,136,2.7,5.4,81,0.00,,---,0.00,VWS V14.01,2013-05-06 14:33:00,
2013-05-06 16:38:00,66.2,60.2,30.06,NNW,339,2.7,6.3,81,0.00,,---,0.00,VWS V14.01,2013-05-06 14:38:00,
2013-05-06 16:43:00,66.4,60.0,30.06,SE,134,4.9,6.7,80,0.00,,---,0.00,VWS V14.01,2013-05-06 14:43:00,
2013-05-06 16:48:00,66.6,60.2,30.06,SSE,150,2.7,6.9,80,0.00,,---,0.00,VWS V14.01,2013-05-06 14:48:00,
2013-05-06 16:53:00,66.9,60.6,30.06,North,351,4.5,6.3,80,0.00,,---,0.00,VWS V14.01,2013-05-06 14:53:00,
2013-05-06 16:57:00,66.9,60.6,30.06,NNW,327,4.0,4.9,80,0.00,,---,0.00,VWS V14.01,2013-05-06 14:57:00,
2013-05-06 17:02:00,66.9,60.6,30.06,NNW,337,5.4,6.3,80,0.00,,---,0.00,VWS V14.01,2013-05-06 15:02:00,
2013-05-06 17:07:00,66.9,60.6,30.06,NNW,330,6.7,7.8,80,0.00,,---,0.00,VWS V14.01,2013-05-06 15:07:00,
2013-05-06 17:12:00,66.9,60.6,30.06,North,356,5.4,8.7,80,0.00,,---,0.00,VWS V14.01,2013-05-06 15:12:00,
2013-05-06 17:18:00,66.9,59.8,30.06,East,90,5.8,7.8,78,0.00,,---,0.00,VWS V14.01,2013-05-06 15:18:00,
2013-05-06 17:22:00,66.9,59.5,30.06,ENE,68,4.0,9.6,77,0.00,,---,0.00,VWS V14.01,2013-05-06 15:22:00,
2013-05-06 17:27:00,66.9,59.1,30.06,East,100,4.9,10.1,76,0.00,,---,0.00,VWS V14.01,2013-05-06 15:27:00,
2013-05-06 17:32:00,67.1,59.3,30.06,East,79,2.7,7.4,76,0.00,,---,0.00,VWS V14.01,2013-05-06 15:32:00,
2013-05-06 17:37:00,67.3,59.5,30.06,ESE,123,6.3,6.3,76,0.00,,---,0.00,VWS V14.01,2013-05-06 15:37:00,
2013-05-06 17:42:00,67.3,59.1,30.06,NNE,14,5.4,6.9,75,0.00,,---,0.00,VWS V14.01,2013-05-06 15:42:00,
2013-05-06 17:47:00,67.3,59.1,30.06,SE,136,3.1,4.5,75,0.00,,---,0.00,VWS V14.01,2013-05-06 15:47:00,
2013-05-06 17:52:00,67.3,59.1,30.06,NNW,334,2.7,5.4,75,0.00,,---,0.00,VWS V14.01,2013-05-06 15:52:00,
2013-05-06 17:57:00,67.5,59.3,30.06,SSE,147,5.4,11.0,75,0.00,,---,0.00,VWS V14.01,2013-05-06 15:57:00,
2013-05-06 18:02:00,67.5,58.9,30.06,SE,145,0.0,3.1,74,0.00,,---,0.00,VWS V14.01,2013-05-06 16:02:00,
2013-05-06 18:07:00,67.6,59.1,30.06,WSW,239,0.0,3.6,74,0.00,,---,0.00,VWS V14.01,2013-05-06 16:07:00,
2013-05-06 18:12:00,67.8,59.2,30.06,WNW,300,6.7,6.7,74,0.00,,---,0.00,VWS V14.01,2013-05-06 16:12:00,
2013-05-06 18:17:00,67.8,59.2,30.06,NNW,332,0.0,4.5,74,0.00,,---,0.00,VWS V14.01,2013-05-06 16:17:00,
2013-05-06 18:22:00,68.0,59.4,30.06,SW,224,3.6,5.4,74,0.00,,---,0.00,VWS V14.01,2013-05-06 16:22:00,
2013-05-06 18:27:00,67.8,58.9,30.06,NNW,331,0.0,5.4,73,0.00,,---,0.00,VWS V14.01,2013-05-06 16:27:00,
2013-05-06 18:32:00,67.8,58.9,30.06,NW,305,3.6,6.3,73,0.00,,---,0.00,VWS V14.01,2013-05-06 16:32:00,
2013-05-06 18:37:00,67.8,58.9,30.06,West,277,4.9,6.9,73,0.00,,---,0.00,VWS V14.01,2013-05-06 16:37:00,
2013-05-06 18:42:00,67.6,58.7,30.06,WNW,289,4.5,5.8,73,0.00,,---,0.00,VWS V14.01,2013-05-06 16:42:00,
2013-05-06 18:47:00,67.8,59.2,30.06,WNW,291,4.0,5.8,74,0.00,,---,0.00,VWS V14.01,2013-05-06 16:47:00,
2013-05-06 18:52:00,67.8,59.2,30.06,WNW,291,6.3,6.3,74,0.00,,---,0.00,VWS V14.01,2013-05-06 16:52:00,
2013-05-06 18:57:00,67.8,59.2,30.06,WNW,300,4.5,5.8,74,0.00,,---,0.00,VWS V14.01,2013-05-06 16:57:00,
2013-05-06 19:02:00,67.8,59.2,30.06,WNW,286,4.9,5.8,74,0.00,,---,0.00,VWS V14.01,2013-05-06 17:02:00,
2013-05-06 19:07:00,67.6,59.1,30.06,WNW,293,0.0,3.6,74,0.00,,---,0.00,VWS V14.01,2013-05-06 17:07:00,
2013-05-06 19:12:00,67.5,59.3,30.06,WNW,283,4.9,6.7,75,0.00,,---,0.00,VWS V14.01,2013-05-06 17:12:00,
2013-05-06 19:17:00,67.6,59.8,30.06,WNW,293,4.5,6.3,76,0.00,,---,0.00,VWS V14.01,2013-05-06 17:17:00,
2013-05-06 19:22:00,67.8,60.0,30.06,WNW,289,5.4,5.8,76,0.00,,---,0.00,VWS V14.01,2013-05-06 17:22:00,
2013-05-06 19:27:00,67.6,59.8,30.06,WNW,302,4.9,5.4,76,0.00,,---,0.00,VWS V14.01,2013-05-06 17:27:00,
2013-05-06 19:32:00,67.5,59.6,30.06,WNW,290,3.1,4.0,76,0.00,,---,0.00,VWS V14.01,2013-05-06 17:32:00,
2013-05-06 19:37:00,67.5,59.6,30.06,WNW,285,7.4,7.4,76,0.00,,---,0.00,VWS V14.01,2013-05-06 17:37:00,
2013-05-06 19:42:00,67.3,59.5,30.06,WNW,293,5.8,6.9,76,0.00,,---,0.00,VWS V14.01,2013-05-06 17:42:00,
2013-05-06 19:47:00,67.1,59.7,30.06,WNW,283,4.9,6.7,77,0.00,,---,0.00,VWS V14.01,2013-05-06 17:47:00,
2013-05-06 19:52:00,66.9,59.5,30.06,WNW,282,6.3,6.3,77,0.00,,---,0.00,VWS V14.01,2013-05-06 17:52:00,
2013-05-06 19:57:00,66.7,59.7,30.06,West,279,6.3,6.3,78,0.00,,---,0.00,VWS V14.01,2013-05-06 17:57:00,
2013-05-06 20:02:00,66.6,59.5,30.06,WNW,287,4.0,5.8,78,0.00,,---,0.00,VWS V14.01,2013-05-06 18:02:00,
2013-05-06 20:07:00,66.4,59.3,30.06,NNW,331,4.0,4.0,78,0.00,,---,0.00,VWS V14.01,2013-05-06 18:07:00,
2013-05-06 20:12:00,66.2,59.5,30.06,WNW,296,2.7,4.0,79,0.00,,---,0.00,VWS V14.01,2013-05-06 18:12:00,
2013-05-06 20:17:00,66.0,59.3,30.06,WNW,296,0.0,0.0,79,0.00,,---,0.00,VWS V14.01,2013-05-06 18:17:00,
2013-05-06 20:23:00,66.0,59.3,30.06,NW,306,2.7,2.7,79,0.00,,---,0.00,VWS V14.01,2013-05-06 18:23:00,
2013-05-06 20:28:00,65.8,59.5,30.06,NW,325,2.7,4.0,80,0.00,,---,0.00,VWS V14.01,2013-05-06 18:28:00,
2013-05-06 20:33:00,65.7,59.3,30.06,NNW,346,2.7,4.9,80,0.00,,---,0.00,VWS V14.01,2013-05-06 18:33:00,
2013-05-06 20:38:00,65.7,59.7,30.06,NW,322,4.0,4.0,81,0.00,,---,0.00,VWS V14.01,2013-05-06 18:38:00,
2013-05-06 20:43:00,65.5,59.5,30.06,NW,323,3.1,3.1,81,0.00,,---,0.00,VWS V14.01,2013-05-06 18:43:00,
2013-05-06 20:47:00,65.5,59.5,30.06,NNW,329,4.0,4.0,81,0.00,,---,0.00,VWS V14.01,2013-05-06 18:47:00,
2013-05-06 20:52:00,65.3,59.3,30.06,West,268,3.1,4.0,81,0.00,,---,0.00,VWS V14.01,2013-05-06 18:52:00,
2013-05-06 20:57:00,65.5,59.8,30.06,West,268,3.6,3.6,82,0.00,,---,0.00,VWS V14.01,2013-05-06 18:57:00,
2013-05-06 21:02:00,65.7,60.0,30.06,West,268,3.1,4.0,82,0.00,,---,0.00,VWS V14.01,2013-05-06 19:02:00,
2013-05-06 21:07:00,65.8,60.2,30.06,West,268,0.0,0.0,82,0.00,,---,0.00,VWS V14.01,2013-05-06 19:07:00,
2013-05-06 21:12:00,65.7,60.0,30.06,West,268,3.6,4.0,82,0.00,,---,0.00,VWS V14.01,2013-05-06 19:12:00,
2013-05-06 21:17:00,65.7,60.0,30.06,West,268,0.0,3.6,82,0.00,,---,0.00,VWS V14.01,2013-05-06 19:17:00,
2013-05-06 21:22:00,65.5,59.8,30.06,West,268,0.0,2.7,82,0.00,,---,0.00,VWS V14.01,2013-05-06 19:22:00,
2013-05-06 21:27:00,65.3,59.7,30.06,West,266,0.0,0.0,82,0.00,,---,0.00,VWS V14.01,2013-05-06 19:27:00,
2013-05-06 21:32:00,65.1,59.5,30.06,West,266,3.1,3.6,82,0.00,,---,0.00,VWS V14.01,2013-05-06 19:32:00,
2013-05-06 21:37:00,65.3,59.7,30.06,West,266,3.6,3.6,82,0.00,,---,0.00,VWS V14.01,2013-05-06 19:37:00,
2013-05-06 21:42:00,65.3,59.7,30.06,WNW,301,4.0,4.5,82,0.00,,---,0.00,VWS V14.01,2013-05-06 19:42:00,
2013-05-06 21:47:00,65.1,59.5,30.06,NNW,335,3.6,4.9,82,0.00,,---,0.00,VWS V14.01,2013-05-06 19:47:00,
2013-05-06 21:52:00,64.9,59.3,30.06,NNW,335,0.0,0.0,82,0.00,,---,0.00,VWS V14.01,2013-05-06 19:52:00,
2013-05-06 21:57:00,64.9,59.3,30.06,NNW,331,2.7,4.0,82,0.00,,---,0.00,VWS V14.01,2013-05-06 19:57:00,
2013-05-06 22:02:00,64.9,59.3,30.06,ENE,70,3.1,4.0,82,0.00,,---,0.00,VWS V14.01,2013-05-06 20:02:00,
2013-05-06 22:07:00,64.8,59.1,30.06,NE,53,2.7,4.0,82,0.00,,---,0.00,VWS V14.01,2013-05-06 20:07:00,
2013-05-06 22:12:00,64.8,59.1,30.06,NNW,341,2.7,3.1,82,0.00,,---,0.00,VWS V14.01,2013-05-06 20:12:00,
2013-05-06 22:17:00,64.6,59.0,30.06,SSE,156,4.5,6.7,82,0.00,,---,0.00,VWS V14.01,2013-05-06 20:17:00,
2013-05-06 22:22:00,64.4,58.8,30.06,South,176,4.0,4.5,82,0.00,,---,0.00,VWS V14.01,2013-05-06 20:22:00,
2013-05-06 22:27:00,64.6,59.3,30.06,SSE,157,3.6,4.5,83,0.00,,---,0.00,VWS V14.01,2013-05-06 20:27:00,
2013-05-06 22:32:00,64.6,59.3,30.06,NNW,333,3.1,4.9,83,0.00,,---,0.00,VWS V14.01,2013-05-06 20:32:00,
2013-05-06 22:37:00,64.2,59.0,30.06,NNW,336,0.0,4.0,83,0.00,,---,0.00,VWS V14.01,2013-05-06 20:37:00,
2013-05-06 22:42:00,64.2,59.0,30.06,NNW,336,3.1,4.5,83,0.00,,---,0.00,VWS V14.01,2013-05-06 20:42:00,
2013-05-06 22:48:00,64.2,59.3,30.06,NNW,337,2.7,5.4,84,0.00,,---,0.00,VWS V14.01,2013-05-06 20:48:00,
2013-05-06 22:53:00,64.0,59.1,30.06,NNW,335,5.4,6.3,84,0.00,,---,0.00,VWS V14.01,2013-05-06 20:53:00,
2013-05-06 22:58:00,64.0,59.5,30.06,NNW,334,2.7,4.9,85,0.00,,---,0.00,VWS V14.01,2013-05-06 20:58:00,
2013-05-06 23:03:00,64.0,59.5,30.06,SE,141,2.7,3.6,85,0.00,,---,0.00,VWS V14.01,2013-05-06 21:03:00,
2013-05-06 23:08:00,64.0,59.5,30.06,SE,141,4.0,4.0,85,0.00,,---,0.00,VWS V14.01,2013-05-06 21:08:00,
2013-05-06 23:13:00,64.2,59.6,30.06,SE,141,0.0,3.1,85,0.00,,---,0.00,VWS V14.01,2013-05-06 21:13:00,
2013-05-06 23:18:00,64.4,59.8,30.06,SE,124,0.0,3.1,85,0.00,,---,0.00,VWS V14.01,2013-05-06 21:18:00,
2013-05-06 23:23:00,64.6,60.0,30.06,SE,124,0.0,0.0,85,0.00,,---,0.00,VWS V14.01,2013-05-06 21:23:00,
2013-05-06 23:28:00,64.8,59.8,30.06,SE,124,0.0,0.0,84,0.00,,---,0.00,VWS V14.01,2013-05-06 21:28:00,
2013-05-06 23:33:00,64.8,59.8,30.06,SE,127,3.1,4.9,84,0.00,,---,0.00,VWS V14.01,2013-05-06 21:33:00,
2013-05-06 23:38:00,64.8,59.5,30.06,SE,127,0.0,3.1,83,0.00,,---,0.00,VWS V14.01,2013-05-06 21:38:00,
2013-05-06 23:43:00,64.9,59.7,30.06,SE,127,0.0,0.0,83,0.00,,---,0.00,VWS V14.01,2013-05-06 21:43:00,
2013-05-06 23:48:00,64.9,59.7,30.06,SE,127,0.0,0.0,83,0.00,,---,0.00,VWS V14.01,2013-05-06 21:48:00,
2013-05-06 23:53:00,64.8,59.5,30.06,SE,127,0.0,0.0,83,0.00,,---,0.00,VWS V14.01,2013-05-06 21:53:00,
2013-05-06 23:58:00,64.8,59.5,30.06,SE,145,0.0,3.6,83,0.00,,---,0.00,VWS V14.01,2013-05-06 21:58:00,